This is the latest recevied weather packets stored in our database for station/object K3HW. If no packets are shown the sender has not sent any weather packets the latest 10 day(s).
| Time | Temp. | Humidity | Pressure | Rain* | Wind** | Luminosity | Snow |
|---|---|---|---|---|---|---|---|
| 1777413332 | 15° C | 57% | 1021.8 hPa | 0 mm | - | 23 W/m² | - |
| 1777412728 | 15.56° C | 56% | 1021.7 hPa | 0 mm | - | 22 W/m² | - |
| 1777410914 | 15.56° C | 55% | 1021.9 hPa | 0 mm | - | 29 W/m² | - |
| 1777410309 | 15.56° C | 55% | 1021.8 hPa | 0 mm | - | 33 W/m² | - |
| 1777409699 | 15.56° C | 54% | 1022 hPa | 0 mm | - | 36 W/m² | - |
| 1777408483 | 15.56° C | 53% | 1022 hPa | 0 mm | - | 58 W/m² | - |
| 1777408178 | 15.56° C | 53% | 1022.1 hPa | 0 mm | - | 63 W/m² | - |
| 1777407873 | 15.56° C | 53% | 1021.9 hPa | 0 mm | - | 64 W/m² | - |
| 1777407572 | 15.56° C | 55% | 1022.1 hPa | 0 mm | - | 78 W/m² | - |
| 1777406665 | 15.56° C | 54% | 1022 hPa | 0 mm | - | 43 W/m² | - |
| 1777406361 | 15.56° C | 54% | 1022.2 hPa | 0 mm | - | 37 W/m² | - |
| 1777406061 | 15.56° C | 53% | 1022.3 hPa | 0 mm | - | 43 W/m² | - |
| 1777403938 | 15.56° C | 51% | 1022.8 hPa | 0 mm | - | 40 W/m² | - |
| 1777403638 | 15.56° C | 51% | 1022.9 hPa | 0 mm | - | 35 W/m² | - |
| 1777402424 | 16.11° C | 51% | 1023.2 hPa | 0 mm | - | 74 W/m² | - |
| 1777399090 | 16.67° C | 49% | 1023.8 hPa | 0 mm | - | 84 W/m² | - |
| 1777397578 | 16.67° C | 47% | 1023.8 hPa | 0 mm | - | 192 W/m² | - |
| 1777396365 | 17.22° C | 51% | 1024 hPa | 0 mm | - | 195 W/m² | - |
| 1777395150 | 16.11° C | 48% | 1024.2 hPa | 0 mm | - | 153 W/m² | - |
| 1777394847 | 16.11° C | 48% | 1024.2 hPa | 0 mm | - | 192 W/m² | - |
| 1777394543 | 16.11° C | 49% | 1024.1 hPa | 0 mm | - | 226 W/m² | - |
| 1777393935 | 16.11° C | 49% | 1024.6 hPa | 0 mm | - | 192 W/m² | - |
| 1777393635 | 15.56° C | 47% | 1024.6 hPa | 0 mm | - | 173 W/m² | - |
| 1777393330 | 15.56° C | 46% | 1024.6 hPa | 0 mm | - | 154 W/m² | - |
| 1777390596 | 15° C | 48% | 1024.9 hPa | 0 mm | - | 91 W/m² | - |
* Rain latest hour (hover to see other rain measurements)
** Current wind speed in m/s (hover to see current wind gust speed)